Location: Torino
(45.0678°N, 7.6825°E)
Time: 13:48:37
(UTC+02:00)

ACS3 Solar Sail - Visible Passes

Search period start: 08 May 2026 00:00
Search period end: 18 May 2026 00:00
Orbit: 890 x 951 km, 97.2° (Epoch: 7 May)

Date Brightness Start Highest point End Pass type
(mag) Time Alt. Az. Time Alt. Az. Time Alt. Az.
8 May 1.8 02:12:01 10° NNE 02:17:59 65° E 02:18:48 58° SE visible
8 May 3.2 03:55:15 10° NNW 03:59:47 23° WNW 04:02:18 18° W visible
9 May 3.9 00:41:23 10° ENE 00:43:19 12° E 00:44:07 11° E visible
9 May 1.7 02:20:35 10° NNE 02:26:37 76° E 02:27:36 62° SSE visible
9 May 3.4 04:04:08 10° NNW 04:08:17 20° WNW 04:11:05 15° W visible
10 May 3.7 00:49:02 10° NE 00:52:07 14° E 00:52:55 14° E visible
10 May 1.6 02:29:13 10° NNE 02:35:15 89° E 02:36:24 61° S visible
10 May 3.6 04:13:06 10° NNW 04:16:47 17° WNW 04:19:53 12° W visible
11 May 3.5 00:57:05 10° NE 01:00:54 17° E 01:01:44 17° E visible
11 May 1.7 02:37:51 10° N 02:43:53 79° WNW 02:45:13 56° SSW visible
11 May 3.7 04:22:11 10° NNW 04:25:15 15° WNW 04:28:20 10° W visible
12 May 3.3 01:05:19 10° NE 01:09:42 21° E 01:10:33 20° E visible
12 May 1.8 02:46:33 10° N 02:52:32 67° WNW 02:54:03 49° SW visible
12 May 3.8 04:31:29 10° NNW 04:33:45 12° NW 04:36:02 10° WNW visible
13 May 3.1 01:13:41 10° NE 01:18:30 24° E 01:19:24 24° ESE visible
13 May 2.0 02:55:18 10° N 03:01:10 57° WNW 03:02:54 42° WSW visible
13 May 3.9 04:41:26 10° NW 04:42:15 10° NW 04:43:03 10° WNW visible
14 May 2.9 01:22:08 10° NNE 01:27:17 29° E 01:28:16 28° ESE visible
14 May 2.2 03:04:04 10° N 03:09:49 48° WNW 03:11:45 36° WSW visible
15 May 2.7 01:30:39 10° NNE 01:36:06 34° E 01:37:08 32° ESE visible
15 May 2.4 03:12:53 10° N 03:18:28 41° WNW 03:20:38 31° WSW visible
16 May 2.4 01:39:14 10° NNE 01:44:54 40° E 01:46:02 37° ESE visible
16 May 2.7 03:21:44 10° N 03:27:07 35° WNW 03:29:31 26° WSW visible
17 May 2.2 01:47:53 10° NNE 01:53:42 48° E 01:54:56 42° SE visible
17 May 2.9 03:30:39 10° N 03:35:47 30° WNW 03:38:26 22° WSW visible
